GW7632 Weather Reports


Display with metric or nautical units.
time (UTC)temp
F
wind
direction
speed
MPH
gust
MPH
rain 1hr
in
rain 24hr
in
rain mn
in
humidity
%
barometer
mb
20260902082311 76 132 0.0 0.0 0.00 0.00 0.00 93 1018.2
20260902081807 76 131 0.0 0.0 0.00 0.00 0.00 93 1018.1
20260902081302 76 131 0.0 0.0 0.00 0.00 0.00 93 1018.3
20260902080757 76 130 0.0 0.0 0.00 0.00 0.00 93 1018.4
20260902080254 76 130 0.0 0.0 0.00 0.00 0.00 93 1018.3
20260902075753 76 127 0.0 0.0 0.00 0.00 0.00 93 1018.3
20260902075250 76 130 0.0 0.0 0.00 0.00 0.00 93 1018.3
20260902074750 76 130 0.0 0.0 0.00 0.00 0.00 93 1018.5
20260902074245 76 131 0.0 0.0 0.00 0.00 0.00 93 1018.2
20260902073740 76 132 0.0 0.0 0.00 0.00 0.00 93 1018.4
20260902073236 76 132 0.0 0.0 0.00 0.00 0.00 93 1018.2
20260902072732 76 131 0.0 0.0 0.00 0.00 0.00 93 1018.6
20260902072228 77 131 0.0 0.0 0.00 0.00 0.00 93 1018.4
20260902071724 77 132 0.0 0.0 0.00 0.00 0.00 93 1018.5
20260902071219 77 132 0.0 0.0 0.00 0.00 0.00 93 1018.5
20260902070715 77 131 0.0 0.0 0.00 0.00 0.00 93 1018.5
20260902070214 77 129 0.0 0.0 0.00 0.00 0.00 93 1018.4
20260902065713 77 130 0.0 0.0 0.00 0.00 0.00 93 1018.4
20260902065209 77 131 0.0 0.0 0.00 0.00 0.00 93 1018.4
20260902064705 77 129 0.0 0.0 0.00 0.00 0.00 93 1018.5
20260902064201 77 130 0.0 0.0 0.00 0.00 0.00 92 1018.3
20260902063656 77 126 0.0 0.0 0.00 0.00 0.00 92 1018.4
20260902063155 77 131 0.0 0.0 0.00 0.00 0.00 92 1018.2
20260902062655 77 130 0.0 0.0 0.00 0.00 0.00 92 1018.5
20260902062150 77 131 0.0 0.0 0.00 0.00 0.00 92 1018.4
20260902061649 77 129 0.0 0.0 0.00 0.00 0.00 92 1018.3
20260902061145 77 131 0.0 0.0 0.00 0.00 0.00 92 1018.4
20260902060642 77 130 0.0 0.0 0.00 0.00 0.00 92 1018.3
20260902060138 77 130 0.0 0.0 0.00 0.00 0.00 92 1018.2
20260902055633 77 128 0.0 0.0 0.00 0.00 0.00 92 1018.3
20260902055129 77 132 0.0 0.0 0.00 0.00 0.00 92 1018.3
20260902054624 77 131 0.0 0.0 0.00 0.00 0.00 92 1018.2
20260902054120 77 131 0.0 0.0 0.00 0.00 0.00 92 1018.4
20260902053615 77 132 0.0 0.0 0.00 0.00 0.00 92 1018.3
20260902053114 77 131 0.0 0.0 0.00 0.00 0.00 92 1018.4
20260902052609 77 132 0.0 0.0 0.00 0.00 0.00 92 1018.6
20260902052104 77 131 0.0 0.0 0.00 0.00 0.00 92 1018.6
20260902051604 77 132 0.0 0.0 0.00 0.00 0.00 92 1018.6
20260902051104 77 132 0.0 0.0 0.00 0.00 0.00 92 1018.5
20260902050604 77 132 0.0 0.0 0.00 0.00 0.00 92 1018.7
20260902050059 77 132 0.0 0.0 0.00 0.00 0.00 92 1018.7
20260902045554 77 130 0.0 0.0 0.00 0.01 0.01 92 1018.6
20260902045051 77 131 0.0 0.0 0.00 0.01 0.01 92 1018.8
20260902044550 77 131 0.0 0.0 0.00 0.01 0.01 92 1018.6
20260902044046 77 131 0.0 0.0 0.00 0.01 0.01 92 1018.7
20260902043542 77 130 0.0 0.0 0.00 0.01 0.01 92 1018.6
20260902043036 77 132 0.0 0.0 0.00 0.01 0.01 91 1018.6
20260902042537 77 131 0.0 0.0 0.00 0.01 0.01 91 1018.8
20260902042032 77 131 0.0 0.0 0.00 0.01 0.01 91 1019.0
20260902041531 78 131 0.0 0.0 0.00 0.01 0.01 91 1018.9
20260902041027 77 131 0.0 0.0 0.00 0.01 0.01 91 1018.8
20260902040526 77 130 0.0 0.0 0.00 0.01 0.01 91 1018.8
20260902040027 77 131 0.0 0.0 0.00 0.01 0.01 91 1018.7
20260902035526 77 131 0.0 0.0 0.00 0.01 0.01 91 1018.7
20260902035021 77 131 0.0 0.0 0.00 0.01 0.01 91 1018.7
20260902034520 77 131 0.0 0.0 0.00 0.01 0.01 91 1018.6
20260902034019 77 131 0.0 0.0 0.00 0.01 0.01 91 1018.6
20260902033519 77 131 0.0 0.0 0.00 0.01 0.01 91 1018.6
20260902033014 78 132 0.0 0.0 0.00 0.01 0.01 91 1018.6
20260902032513 78 131 0.0 0.0 0.00 0.01 0.01 91 1018.7
20260902032008 78 134 0.0 0.0 0.00 0.01 0.01 90 1018.7
20260902031508 78 130 0.0 0.0 0.00 0.01 0.01 90 1018.7
20260902031005 78 131 0.0 0.0 0.00 0.01 0.01 90 1018.5
20260902030505 78 131 0.0 0.0 0.00 0.01 0.01 90 1018.6
20260902030004 78 131 0.0 0.0 0.00 0.01 0.01 90 1018.6
20260902025459 78 130 0.0 0.0 0.00 0.01 0.01 90 1018.9
20260902024954 78 129 0.0 0.0 0.00 0.01 0.01 90 1018.7
20260902024449 78 129 0.0 0.0 0.00 0.01 0.01 90 1018.6
20260902023944 78 130 0.0 0.0 0.00 0.01 0.01 90 1018.8
20260902023440 78 131 0.0 0.0 0.00 0.01 0.01 90 1018.7
20260902022939 78 130 0.0 0.0 0.00 0.01 0.01 90 1018.4
20260902022434 78 130 0.0 0.0 0.00 0.01 0.01 90 1018.4
20260902021930 78 131 0.0 0.0 0.00 0.01 0.01 90 1018.3
20260902021425 78 130 0.0 0.0 0.00 0.01 0.01 90 1018.0
20260902020920 78 131 0.0 0.0 0.00 0.01 0.01 90 1018.1
20260902020417 78 128 0.0 0.0 0.00 0.01 0.01 90 1018.2
20260902015912 78 129 0.0 0.0 0.00 0.01 0.01 90 1017.9
20260902015407 78 131 0.0 0.0 0.00 0.01 0.01 89 1017.8
20260902014903 78 130 0.0 0.0 0.00 0.01 0.01 89 1017.8
20260902014359 78 131 0.0 0.0 0.00 0.01 0.01 89 1017.9
20260902013858 78 131 0.0 0.0 0.00 0.01 0.01 89 1017.9
20260902013354 78 131 0.0 0.0 0.00 0.01 0.01 89 1017.9
20260902012849 78 131 0.0 0.0 0.00 0.01 0.01 88 1017.8
20260902012345 78 131 0.0 0.0 0.00 0.01 0.01 88 1017.9
20260902011841 78 131 0.0 0.0 0.00 0.01 0.01 88 1018.1
20260902011340 78 131 0.0 0.0 0.00 0.01 0.01 88 1017.9
20260902010835 78 131 0.0 0.0 0.00 0.01 0.01 87 1018.0
20260902010330 78 131 0.0 0.0 0.00 0.01 0.01 87 1017.8
20260902005829 79 132 0.0 0.0 0.00 0.01 0.01 87 1017.8
20260902005329 79 134 0.0 0.0 0.00 0.01 0.01 86 1017.7
20260902004825 79 184 0.0 0.0 0.00 0.01 0.01 86 1017.8
20260902004325 79 183 0.0 0.0 0.00 0.01 0.01 85 1017.6
20260902003820 79 182 0.0 0.0 0.00 0.01 0.01 85 1017.6
20260902003315 80 182 0.0 0.0 0.00 0.01 0.01 84 1017.6
20260902002811 80 182 0.0 0.0 0.00 0.01 0.01 84 1017.5
20260902002310 80 167 0.0 0.0 0.00 0.01 0.01 84 1017.4
20260902001806 81 158 0.0 0.0 0.00 0.01 0.01 83 1017.4
20260902001301 81 215 0.0 0.0 0.00 0.01 0.01 82 1017.5
20260902000800 81 214 0.0 0.0 0.00 0.01 0.01 82 1017.4
20260902000257 82 214 0.0 0.0 0.00 0.01 0.01 81 1017.2
20260901235750 82 232 0.0 0.0 0.00 0.01 0.01 81 1017.3
20260901235245 82 221 0.0 0.0 0.00 0.01 0.01 80 1017.2
20260901234744 82 208 0.0 0.0 0.00 0.01 0.01 81 1017.4
20260901234239 82 131 0.0 0.0 0.00 0.01 0.01 81 1017.4
20260901233734 82 196 0.0 0.0 0.00 0.01 0.01 81 1017.2
20260901233230 83 193 0.0 0.0 0.00 0.01 0.01 81 1017.4
20260901232730 83 197 0.0 0.0 0.00 0.01 0.01 80 1017.4
20260901232226 83 214 0.0 0.0 0.00 0.01 0.01 80 1017.1
20260901231722 83 206 0.0 0.0 0.00 0.01 0.01 79 1017.3
20260901231218 83 197 0.0 0.0 0.00 0.01 0.01 79 1017.6
20260901230714 83 195 0.0 0.0 0.00 0.01 0.01 79 1017.4
20260901230214 83 214 0.0 0.0 0.00 0.01 0.01 80 1017.4
20260901225709 83 208 0.0 0.0 0.00 0.01 0.01 79 1017.4
20260901225209 83 188 0.0 0.0 0.00 0.01 0.01 80 1017.6
20260901224705 83 225 0.0 0.0 0.00 0.01 0.01 79 1017.5
20260901224201 83 225 0.0 0.0 0.00 0.01 0.01 79 1017.4
20260901223656 83 207 0.0 0.0 0.00 0.01 0.01 79 1017.5
20260901223151 83 218 0.0 0.0 0.00 0.01 0.01 80 1017.7
20260901222647 82 198 0.0 0.0 0.00 0.01 0.01 80 1017.7
20260901222143 82 220 0.0 0.0 0.00 0.01 0.01 81 1018.0
20260901221639 83 211 0.0 0.0 0.00 0.01 0.01 80 1017.8
20260901221135 83 225 0.0 0.0 0.00 0.01 0.01 80 1017.6
20260901220633 83 225 0.0 0.0 0.00 0.01 0.01 79 1017.7
20260901220133 83 220 0.0 0.0 0.00 0.01 0.01 80 1017.6
20260901215631 82 220 0.0 0.0 0.00 0.01 0.01 81 1017.6
20260901215126 82 220 0.0 0.0 0.00 0.01 0.01 81 1017.9
20260901214625 82 219 0.0 0.0 0.00 0.01 0.01 81 1017.8
20260901214125 82 220 0.0 0.0 0.00 0.01 0.01 82 1018.0
20260901213624 82 220 0.0 0.0 0.00 0.01 0.01 83 1018.0
20260901213119 81 219 0.0 0.0 0.00 0.01 0.01 83 1018.0
20260901212619 81 219 0.0 0.0 0.00 0.01 0.01 83 1018.1
20260901212115 81 219 0.0 0.0 0.00 0.01 0.01 84 1017.9
20260901211610 81 219 0.0 0.0 0.00 0.01 0.01 83 1017.9
20260901211107 81 219 0.0 0.0 0.00 0.01 0.01 83 1017.6
20260901210601 81 219 0.0 0.0 0.00 0.01 0.01 84 1017.8
20260901210059 80 219 0.0 0.0 0.00 0.01 0.01 84 1017.8
20260901205554 80 219 0.0 0.0 0.00 0.01 0.01 84 1017.8
20260901205053 80 219 0.0 0.0 0.00 0.01 0.01 84 1017.9
20260901204549 79 219 0.0 0.0 0.00 0.01 0.01 85 1018.0
20260901204045 79 246 0.0 0.0 0.00 0.01 0.01 85 1018.2
20260901203544 79 211 0.0 0.0 0.00 0.01 0.01 87 1018.1
20260901203040 79 211 0.0 0.0 0.00 0.01 0.01 87 1017.9
20260901202540 79 211 0.0 0.0 0.00 0.01 0.01 87 1018.5
20260901202036 79 211 0.0 0.0 0.00 0.01 0.01 87 1018.5
20260901201531 79 211 0.0 0.0 0.00 0.01 0.01 87 1018.4
20260901201031 79 211 0.0 0.0 0.00 0.01 0.01 87 1018.7
20260901200530 79 209 0.0 0.0 0.00 0.01 0.01 86 1018.5
20260901200025 79 208 0.0 0.0 0.00 0.01 0.01 86 1018.7
20260901195523 79 208 0.0 0.0 0.00 0.01 0.01 85 1018.6
20260901195023 79 208 0.0 0.0 0.00 0.01 0.01 86 1018.5
20260901194518 79 208 0.0 0.0 0.00 0.01 0.01 86 1018.8
20260901194013 80 205 0.0 0.0 0.00 0.01 0.01 85 1018.8
20260901193513 80 211 0.0 0.0 0.00 0.01 0.01 85 1018.8
20260901193013 80 183 0.0 0.0 0.05 0.01 0.01 84 1018.8
20260901192508 80 182 0.0 0.0 0.05 0.01 0.01 84 1018.6
20260901192004 81 180 0.0 0.0 0.00 0.00 0.00 83 1018.5
20260901191500 81 201 0.0 0.0 0.00 0.00 0.00 83 1018.7
20260901190955 81 221 0.0 0.0 0.00 0.00 0.00 82 1019.0
20260901190451 81 224 0.0 0.0 0.00 0.00 0.00 82 1018.8
20260901185948 81 205 0.0 0.0 0.00 0.00 0.00 82 1018.8
20260901185443 82 188 0.0 0.0 0.00 0.00 0.00 81 1018.8
20260901184943 82 224 0.0 0.0 0.00 0.00 0.00 81 1019.0
20260901184438 82 209 0.0 0.0 0.00 0.00 0.00 80 1018.8
20260901183933 82 206 0.0 0.0 0.00 0.00 0.00 80 1018.7
20260901183433 83 216 0.0 0.0 0.00 0.00 0.00 79 1018.9
20260901182929 83 214 0.0 0.0 0.00 0.00 0.00 77 1018.8
20260901182425 83 179 0.0 0.0 0.00 0.00 0.00 78 1018.8
20260901181920 84 212 0.0 0.0 0.00 0.00 0.00 77 1019.3
20260901181420 84 334 0.0 0.0 0.00 0.00 0.00 77 1019.3
20260901180919 84 220 0.0 0.0 0.00 0.00 0.00 76 1019.1
20260901180418 85 218 0.0 0.0 0.00 0.00 0.00 76 1019.3
20260901175916 85 220 0.0 0.0 0.00 0.00 0.00 73 1019.3
20260901175412 85 198 0.0 0.0 0.00 0.00 0.00 73 1019.4
20260901174907 85 207 0.0 0.0 0.00 0.00 0.00 74 1019.2
20260901174403 85 194 0.0 0.0 0.00 0.00 0.00 76 1019.1
20260901173858 85 213 0.0 0.0 0.00 0.00 0.00 71 1019.2
20260901173353 85 200 0.0 0.0 0.00 0.00 0.00 74 1018.9
20260901172849 85 180 0.0 0.0 0.00 0.00 0.00 72 1019.2
20260901172348 85 131 0.0 0.0 0.00 0.00 0.00 74 1019.1
20260901171847 86 203 0.0 0.0 0.00 0.00 0.00 74 1018.9
20260901171346 86 201 0.0 0.0 0.00 0.00 0.00 75 1019.1
20260901170844 86 223 0.0 0.0 0.00 0.00 0.00 74 1019.2
20260901170340 86 166 0.0 0.0 0.00 0.00 0.00 72 1019.1
20260901165834 87 218 0.0 0.0 0.00 0.00 0.00 71 1019.2
20260901165333 87 221 0.0 0.0 0.00 0.00 0.00 71 1019.2
20260901164830 87 223 0.0 0.0 0.00 0.00 0.00 75 1019.1
20260901164326 88 148 0.0 0.0 0.00 0.00 0.00 73 1019.1
20260901163825 90 202 0.0 0.0 0.00 0.00 0.00 73 1019.1
20260901163320 90 197 0.0 0.0 0.00 0.00 0.00 72 1018.9
20260901162815 90 224 0.0 0.0 0.00 0.00 0.00 72 1019.1
20260901162314 89 195 0.0 0.0 0.00 0.00 0.00 77 1019.5
20260901161814 88 156 0.0 0.0 0.00 0.00 0.00 77 1019.3
20260901161308 87 215 0.0 0.0 0.00 0.00 0.00 78 1019.2
20260901160804 87 209 0.0 0.0 0.00 0.00 0.00 78 1019.1
20260901160300 87 204 0.0 0.0 0.00 0.00 0.00 77 1018.9
20260901155759 87 231 0.0 0.0 0.00 0.00 0.00 76 1019.4
20260901155254 88 225 0.0 0.0 0.00 0.00 0.00 76 1019.1
20260901154750 88 199 0.0 0.0 0.00 0.00 0.00 76 1019.1
20260901154244 88 203 0.0 0.0 0.00 0.00 0.00 76 1019.1
20260901153739 87 223 0.0 0.0 0.00 0.00 0.00 78 1019.1
20260901153238 87 172 0.0 0.0 0.00 0.00 0.00 78 1018.9
20260901152738 86 203 0.0 0.0 0.00 0.00 0.00 79 1019.2
20260901152237 86 220 0.0 0.0 0.00 0.00 0.00 80 1019.1
20260901151732 86 217 0.0 0.0 0.00 0.00 0.00 81 1018.9
20260901151227 85 204 0.0 0.0 0.00 0.00 0.00 81 1019.1
20260901150726 86 208 0.0 0.0 0.00 0.00 0.00 80 1019.2
20260901150224 86 227 0.0 0.0 0.00 0.00 0.00 80 1019.0
20260901145722 86 190 0.0 0.0 0.00 0.00 0.00 80 1018.7
20260901145222 86 206 0.0 0.0 0.00 0.00 0.00 80 1018.6
20260901144718 86 229 0.0 0.0 0.00 0.00 0.00 80 1018.9
20260901144213 86 226 0.0 0.0 0.00 0.00 0.00 80 1018.8
20260901143708 85 184 0.0 0.0 0.00 0.00 0.00 80 1018.8
20260901143204 85 219 0.0 0.0 0.00 0.00 0.00 81 1018.7
20260901142700 85 211 0.0 0.0 0.00 0.00 0.00 80 1018.8
20260901142159 85 200 0.0 0.0 0.00 0.00 0.00 81 1018.7
20260901141655 85 226 0.0 0.0 0.00 0.00 0.00 81 1019.0
20260901141154 85 215 0.0 0.0 0.00 0.00 0.00 81 1018.8
20260901140653 85 219 0.0 0.0 0.00 0.00 0.00 81 1018.8
20260901140152 85 195 0.0 0.0 0.00 0.00 0.00 81 1018.9
20260901135647 84 206 0.0 0.0 0.00 0.00 0.00 81 1018.8
20260901135142 84 227 0.0 0.0 0.00 0.00 0.00 81 1019.0
20260901134638 84 211 0.0 0.0 0.00 0.00 0.00 82 1018.9
20260901134139 84 199 0.0 0.0 0.00 0.00 0.00 83 1019.1
20260901133638 84 205 0.0 0.0 0.00 0.00 0.00 82 1019.0
20260901133136 84 205 0.0 0.0 0.00 0.00 0.00 83 1018.9
20260901132631 84 217 0.0 0.0 0.00 0.00 0.00 82 1018.9
20260901132132 84 216 0.0 0.0 0.00 0.00 0.00 83 1019.0
20260901131631 83 193 0.0 0.0 0.00 0.00 0.00 85 1018.9
20260901131126 82 209 0.0 0.0 0.00 0.00 0.00 86 1019.0
20260901130621 82 286 0.0 0.0 0.00 0.00 0.00 86 1018.9
20260901130119 82 213 0.0 0.0 0.00 0.00 0.00 87 1018.8
20260901125618 81 203 0.0 0.0 0.00 0.00 0.00 88 1018.8
20260901125114 81 184 0.0 0.0 0.00 0.00 0.00 89 1018.7
20260901124614 80 216 0.0 0.0 0.00 0.00 0.00 90 1018.8
20260901124108 80 212 0.0 0.0 0.00 0.00 0.00 90 1018.6
20260901123608 79 219 0.0 0.0 0.00 0.00 0.00 91 1018.5
20260901123108 79 209 0.0 0.0 0.00 0.00 0.00 92 1018.5
20260901122607 79 213 0.0 0.0 0.00 0.00 0.00 92 1018.3
20260901122106 78 217 0.0 0.0 0.00 0.00 0.00 92 1018.2
20260901121601 78 225 0.0 0.0 0.00 0.00 0.00 92 1018.4
20260901121057 78 222 0.0 0.0 0.00 0.00 0.00 92 1018.3
20260901120556 78 222 0.0 0.0 0.00 0.00 0.00 92 1018.5
20260901120052 78 222 0.0 0.0 0.00 0.00 0.00 92 1018.3
20260901115547 77 222 0.0 0.0 0.00 0.00 0.00 92 1018.0
20260901115044 77 222 0.0 0.0 0.00 0.00 0.00 92 1018.2
20260901114540 77 221 0.0 0.0 0.00 0.00 0.00 92 1018.2
20260901114038 78 222 0.0 0.0 0.00 0.00 0.00 92 1018.0
20260901113532 78 221 0.0 0.0 0.00 0.00 0.00 92 1017.9
20260901113028 78 222 0.0 0.0 0.00 0.00 0.00 92 1017.8
20260901112527 78 226 0.0 0.0 0.00 0.00 0.00 92 1018.0
20260901112022 78 226 0.0 0.0 0.00 0.00 0.00 91 1018.3
20260901111521 78 226 0.0 0.0 0.00 0.00 0.00 91 1018.1
20260901111019 78 225 0.0 0.0 0.00 0.00 0.00 92 1018.1
20260901110516 78 228 0.0 0.0 0.00 0.00 0.00 92 1017.8
20260901110011 78 221 0.0 0.0 0.00 0.00 0.00 92 1017.7
20260901105507 78 216 0.0 0.0 0.00 0.00 0.00 92 1017.8
20260901105006 78 214 0.0 0.0 0.00 0.00 0.00 92 1017.6
20260901104503 78 215 0.0 0.0 0.00 0.00 0.00 92 1017.3
20260901103958 77 216 0.0 0.0 0.00 0.00 0.00 92 1017.5
20260901103452 77 208 0.0 0.0 0.00 0.00 0.00 92 1017.6
20260901102948 77 209 0.0 0.0 0.00 0.00 0.00 92 1017.6
20260901102442 77 212 0.0 0.0 0.00 0.00 0.00 92 1017.5
20260901101937 77 212 0.0 0.0 0.00 0.00 0.00 92 1017.6
20260901101432 77 212 0.0 0.0 0.00 0.00 0.00 92 1017.6
20260901100931 77 211 0.0 0.0 0.00 0.00 0.00 92 1017.5
20260901100421 77 212 0.0 0.0 0.00 0.00 0.00 92 1017.7
20260901095920 77 214 0.0 0.0 0.00 0.00 0.00 92 1017.7
20260901095419 77 213 0.0 0.0 0.00 0.00 0.00 92 1017.8
20260901094917 77 213 0.0 0.0 0.00 0.00 0.00 92 1017.8
20260901094418 77 214 0.0 0.0 0.00 0.00 0.00 91 1017.6
20260901093912 77 214 0.0 0.0 0.00 0.00 0.00 91 1017.4
20260901093411 77 214 0.0 0.0 0.00 0.00 0.00 91 1017.6
20260901092907 77 215 0.0 0.0 0.00 0.00 0.00 91 1017.6
20260901092403 77 213 0.0 0.0 0.00 0.00 0.00 91 1017.7
20260901091859 78 213 0.0 0.0 0.00 0.00 0.00 91 1017.7
20260901091359 78 212 0.0 0.0 0.00 0.00 0.00 91 1017.8
20260901090854 78 213 0.0 0.0 0.00 0.00 0.00 91 1017.7
20260901090354 78 209 0.0 0.0 0.00 0.00 0.00 92 1017.7
20260901085850 78 220 0.0 0.0 0.00 0.00 0.00 92 1017.8
20260901085345 78 213 0.0 0.0 0.00 0.00 0.00 92 1017.7
20260901084842 78 222 0.0 0.0 0.00 0.00 0.00 92 1018.0
20260901084338 78 216 0.0 0.0 0.00 0.00 0.00 92 1018.0
20260901083833 78 215 0.0 0.0 0.00 0.00 0.00 92 1017.8
20260901083332 78 211 0.0 0.0 0.00 0.00 0.00 92 1017.8
20260901082831 78 211 0.0 0.0 0.00 0.00 0.00 92 1017.6